Theta_e
321 321 324 324 327 327 328 331 331 335 330 328 332 332 327 326 324 321 322 319 319 322 319 322 321 318 322 325 323 329 334 333 336 335 338 337 324 326 329 327 327 324 328 334 337 339 339 340 340 340 341 340 341 340 339 339 338 338 338 337 338 339 340 340 340 340 340 340 340 339 339 339 338 337 337 337 336 336 336 337 337 336 337 338 338 339 339 338 337 337 337 336 335 335 334 332 331
323 325 326 325 326 323 331 334 334 337 332 328 329 333 331 323 320 325 328 324 322 317 316 323 324 323 325 325 321 324 328 327 330 333 331 326 325 328 328 329 327 325 328 333 338 338 339 339 339 340 340 340 340 340 339 339 339 339 339 338 339 340 340 340 340 340 340 339 339 339 339 338 337 336 336 335 334 334 334 335 336 336 337 337 337 337 337 336 335 336 336 335 334 334 333 332 330
324 327 327 326 325 326 337 334 332 332 324 323 326 331 327 322 326 329 329 325 319 313 316 321 322 324 323 323 321 323 328 329 328 332 329 322 329 330 327 330 327 327 328 332 338 338 339 339 339 340 339 340 339 339 339 339 339 339 339 339 339 340 339 339 339 339 339 338 338 337 337 336 335 334 334 333 333 332 332 333 334 334 335 335 335 335 335 335 334 334 335 333 333 332 332 330 328
326 328 325 326 326 334 347 337 339 334 321 326 325 330 333 330 332 330 326 321 316 315 318 318 320 320 318 324 322 321 326 328 325 331 335 324 328 330 327 330 328 328 327 331 336 337 338 338 339 339 338 339 338 339 338 338 339 338 338 338 339 339 339 338 338 338 337 337 336 335 335 334 333 333 332 331 331 331 331 331 332 332 333 332 332 333 333 332 331 331 331 329 329 328 327 325 323
326 326 322 327 329 332 340 330 336 330 320 331 327 332 345 339 333 328 326 321 318 319 319 317 321 317 315 323 322 324 328 325 319 319 326 323 325 328 327 330 330 329 327 330 334 337 337 337 338 337 338 338 337 338 337 337 337 337 337 337 338 337 338 337 337 336 335 335 334 333 333 332 331 330 330 329 329 329 329 330 330 330 330 329 329 330 329 328 327 325 323 321 319 317 315 313 311
325 325 321 322 322 324 331 325 331 331 324 330 330 335 340 334 329 325 325 324 321 320 318 317 319 316 317 321 319 322 324 321 320 318 318 320 324 327 329 329 330 330 328 329 332 336 336 336 337 336 336 336 336 336 336 336 335 336 336 336 336 336 336 335 335 334 334 333 332 331 331 330 329 328 328 327 326 327 327 328 327 327 326 325 325 325 324 322 319 316 312 309 307 305 304 303 303
323 324 325 323 322 325 334 331 332 338 330 325 329 332 327 326 324 321 323 321 320 319 315 316 317 315 318 319 318 317 316 318 319 320 318 318 323 327 329 329 330 330 329 330 331 333 334 335 334 334 334 334 335 335 334 333 334 333 334 334 333 334 334 333 333 332 332 330 330 330 329 328 327 326 326 325 325 324 325 324 324 323 322 321 320 318 316 313 310 307 304 302 300 300 300 300 300
322 326 328 332 331 328 332 333 332 335 330 324 326 329 326 324 321 318 321 320 318 319 315 317 318 316 318 316 322 320 312 317 318 318 318 317 322 326 329 328 330 330 330 330 330 332 332 333 333 333 333 333 334 333 333 332 332 331 331 332 331 332 331 331 330 330 329 328 328 328 327 326 325 324 324 324 322 319 318 318 318 318 317 315 313 310 308 306 304 302 301 300 299 299 299 299 299
320 323 326 331 328 325 330 330 326 327 329 326 322 326 325 321 320 317 321 322 319 319 317 318 318 317 319 315 323 322 312 317 317 317 317 317 321 326 328 327 329 329 329 329 329 330 330 331 331 332 331 331 331 331 331 330 330 330 330 330 329 330 329 329 328 328 328 327 327 326 326 325 324 323 323 320 314 310 308 308 309 310 309 308 306 305 306 305 303 301 300 299 298 299 298 298 298
320 321 324 327 323 322 326 325 324 325 328 327 322 322 321 318 320 319 320 321 319 319 316 316 316 316 317 317 322 319 315 317 316 318 316 317 321 325 328 327 328 327 328 327 327 327 326 327 327 329 329 329 330 329 329 329 329 328 329 329 328 328 327 328 327 327 326 326 326 325 325 323 323 321 318 312 306 304 303 302 303 303 303 303 304 305 306 306 305 302 300 299 299 299 298 298 298
327 329 328 324 323 322 322 323 326 328 327 324 324 323 319 316 317 319 319 318 319 318 315 315 316 319 316 318 326 318 314 316 316 318 316 317 321 325 328 327 327 326 326 326 325 325 325 326 326 327 327 328 329 328 328 328 328 327 328 327 327 327 326 326 326 326 325 325 325 324 323 322 319 315 311 306 304 303 302 302 302 302 302 304 304 305 304 303 303 301 300 299 299 299 298 298 297
326 334 338 330 328 325 324 327 327 329 329 325 328 324 315 315 317 320 322 320 320 319 318 317 316 320 317 322 328 315 311 316 317 317 317 317 321 325 327 327 327 326 325 325 324 324 324 326 326 326 326 328 328 327 327 327 327 327 327 326 326 326 325 325 325 325 324 324 323 322 320 316 312 308 306 304 303 303 302 302 301 301 303 304 304 303 301 299 299 298 298 298 298 298 298 297 297
331 334 337 327 327 328 324 330 332 330 332 330 328 320 312 317 322 321 323 320 318 319 320 317 315 316 318 324 324 318 316 315 316 317 317 317 321 325 326 327 326 326 325 324 324 323 324 325 325 325 325 327 327 326 326 326 326 326 326 325 325 325 325 324 324 323 323 322 319 317 313 308 306 305 304 303 303 302 302 301 300 300 301 302 301 300 298 297 297 297 297 297 297 297 297 297 297
333 336 333 321 323 329 326 329 331 327 329 332 327 318 313 318 321 320 320 320 320 320 316 313 314 315 319 321 325 332 321 312 316 317 316 318 321 324 325 326 326 326 325 325 324 322 321 323 324 324 324 325 326 326 326 326 325 325 325 324 325 324 324 323 323 322 320 316 312 309 307 304 304 303 302 302 302 301 301 300 300 299 299 299 298 297 297 297 297 297 297 297 297 297 297 297 296
324 336 336 327 326 328 326 325 324 322 322 326 322 315 316 318 317 319 318 319 322 317 312 310 312 316 320 320 325 329 314 310 316 316 316 319 320 323 324 325 325 325 325 325 324 322 320 321 322 323 323 323 324 325 325 325 325 325 324 324 324 324 323 322 321 318 314 310 307 305 304 303 302 301 301 301 300 299 299 299 299 299 298 297 297 297 297 297 297 297 297 297 297 296 297 297 296
325 338 334 327 329 324 325 324 320 321 325 329 322 314 319 320 315 316 317 316 318 314 312 315 313 314 320 322 320 314 309 312 315 315 317 318 320 321 322 323 324 324 324 324 324 323 322 321 320 320 321 321 321 323 324 324 324 324 324 324 323 322 322 319 315 311 308 307 305 303 302 301 301 300 300 299 298 298 298 298 298 298 297 297 297 297 297 297 297 297 297 297 297 297 296 296 296
325 335 330 325 329 325 325 325 320 322 330 336 325 315 317 319 316 313 311 312 316 316 316 319 313 312 318 319 313 309 310 312 313 316 316 316 318 319 320 322 322 323 324 324 324 323 323 322 320 319 320 319 319 321 323 324 323 324 323 323 321 319 317 314 309 307 305 304 302 301 300 299 299 298 298 298 298 298 297 297 297 297 297 297 297 297 297 297 297 297 297 297 296 296 296 296 296
324 330 325 322 328 327 328 328 324 320 323 327 321 316 315 317 319 314 311 314 316 316 317 319 315 313 314 311 309 310 311 312 314 315 314 314 315 316 318 319 321 322 323 323 323 323 323 322 320 319 319 319 318 320 323 323 323 322 321 319 318 315 312 309 306 304 302 301 301 299 298 298 298 297 297 298 297 297 297 297 297 297 297 297 297 297 297 297 297 297 297 297 296 296 296 296 296
329 330 321 325 330 327 326 327 326 320 319 322 320 317 314 316 317 313 314 318 318 316 318 318 317 317 314 309 307 310 310 311 314 313 313 312 312 314 315 317 319 319 321 322 322 322 322 321 320 319 318 318 318 320 321 322 322 320 318 315 313 311 308 305 303 302 300 300 299 298 298 297 297 297 297 297 297 297 297 297 297 297 298 298 298 298 298 298 297 297 297 296 296 296 295 295 295
329 326 324 333 330 324 324 324 323 320 317 318 320 317 314 316 315 313 315 317 318 317 317 317 318 319 317 316 309 307 309 309 311 312 311 311 312 313 314 315 316 318 320 321 321 321 321 321 320 318 317 317 318 319 319 320 320 318 315 312 309 307 304 302 300 299 299 298 298 297 297 297 297 296 296 296 297 297 297 297 297 297 298 297 297 298 298 297 297 296 296 295 295 295 295 294 294
324 322 328 336 325 320 324 323 321 319 315 315 318 316 315 316 313 313 315 316 317 316 316 315 316 317 316 322 315 305 306 306 307 310 310 310 311 312 314 315 316 318 319 318 319 320 320 320 319 318 317 317 317 317 317 317 318 316 313 310 306 304 302 300 299 298 298 297 297 297 296 296 296 296 296 296 296 296 297 297 297 297 297 297 297 297 297 296 296 295 295 295 294 294 294 294 294
322 322 326 330 321 318 322 323 322 319 315 315 317 316 316 314 312 315 315 315 316 316 317 317 316 317 315 317 316 306 306 307 305 307 308 309 310 311 312 313 315 316 316 317 318 319 320 319 318 318 316 316 316 316 315 315 316 314 311 308 306 304 302 300 299 298 297 297 297 296 296 296 296 296 296 296 296 296 296 296 296 296 297 297 296 297 296 296 295 295 294 294 294 293 294 293 293
321 323 323 325 321 319 320 321 322 318 315 317 317 315 315 314 314 316 315 315 315 315 316 318 316 313 310 311 316 317 316 312 307 305 307 309 309 310 311 312 313 314 315 316 317 317 318 318 318 317 316 315 315 315 314 314 313 312 309 307 305 304 302 300 299 298 297 296 296 296 296 296 296 296 296 296 296 296 296 296 296 296 297 297 296 296 296 296 295 295 294 294 294 293 293 293 293
319 322 323 322 320 320 320 318 319 319 317 317 316 314 315 316 316 314 314 315 315 314 313 316 313 306 307 312 320 324 320 312 307 306 308 309 309 311 312 311 311 312 313 313 315 315 316 317 317 317 316 315 315 315 314 313 312 311 309 306 304 303 301 300 299 297 297 296 296 296 296 296 296 296 296 296 295 295 296 296 296 296 296 296 296 296 296 296 295 294 294 293 293 293 293 293 293
320 322 323 321 320 322 321 317 318 320 318 315 313 315 317 315 314 312 312 313 313 313 312 313 312 309 310 313 317 319 317 312 307 306 307 308 309 310 310 310 309 310 310 312 313 314 315 316 316 316 316 315 315 314 314 313 312 311 308 305 303 302 300 299 298 297 296 296 296 296 296 296 296 296 296 295 295 295 295 296 296 296 296 296 296 295 295 295 295 294 293 293 293 293 293 293 293
322 320 322 321 319 320 319 316 317 318 318 314 312 316 315 313 313 312 313 314 312 312 313 312 313 314 313 311 312 314 316 314 308 306 306 307 308 307 308 308 308 309 309 310 311 312 313 314 315 316 315 315 314 314 314 313 312 311 308 304 302 301 300 298 298 297 296 296 296 296 296 296 295 296 296 295 295 295 295 296 296 296 295 295 295 295 294 294 294 294 293 293 293 293 293 293 293
320 319 320 319 317 316 314 315 316 314 316 314 313 315 315 312 312 313 316 317 313 313 316 314 313 316 314 311 310 310 312 312 307 306 307 306 306 306 307 307 307 308 308 308 309 310 311 312 313 314 314 315 314 313 313 312 311 310 307 304 302 301 299 298 297 296 296 296 296 296 296 295 295 295 295 295 295 295 295 295 295 295 295 295 295 294 294 293 293 293 293 293 293 293 293 293 292
314 315 316 316 314 314 313 313 314 312 313 314 312 312 314 312 312 313 314 315 312 313 316 314 314 314 313 311 309 309 309 307 305 306 307 306 306 306 306 307 307 307 307 307 308 308 309 310 311 312 313 313 313 313 312 312 310 308 307 304 302 301 299 298 297 296 296 296 296 296 296 295 295 295 295 295 295 295 295 295 295 295 294 294 294 294 293 293 293 293 293 293 293 293 293 293 292
312 313 314 316 314 313 313 313 314 313 313 314 311 311 314 315 315 315 312 312 312 312 315 314 313 312 312 311 309 309 307 304 304 304 306 307 307 307 307 308 308 307 308 308 307 307 308 308 308 309 310 311 312 312 311 311 310 308 306 304 302 301 299 298 297 296 296 296 296 296 296 295 295 295 295 295 295 295 295 295 294 294 294 294 293 293 293 293 293 293 293 293 293 293 293 293 292
312 313 314 314 314 314 313 313 314 312 313 315 312 312 318 318 315 314 312 312 311 312 315 314 313 312 312 311 310 310 307 304 304 304 305 307 308 307 308 309 308 308 307 306 306 307 307 307 307 307 308 309 310 311 310 310 309 308 306 304 302 301 299 297 296 296 295 296 296 295 296 295 295 294 294 295 295 295 295 294 294 294 293 293 293 293 293 294 293 293 293 293 293 293 293 293 292
315 312 314 315 314 317 315 312 312 311 312 314 312 312 315 315 314 313 312 313 313 313 315 314 313 312 312 312 312 311 309 305 303 304 306 306 307 307 308 308 308 308 307 307 308 307 306 306 306 306 306 307 308 309 310 309 308 307 306 304 302 300 299 297 296 296 296 295 295 295 295 295 295 294 294 295 295 295 294 294 294 293 293 293 293 293 293 293 293 293 293 293 293 293 292 292 292
322 313 316 319 316 317 316 312 312 312 312 311 312 314 313 312 313 313 312 313 313 314 316 316 314 313 312 312 311 311 310 306 303 303 305 306 306 307 307 308 307 307 308 308 308 307 306 306 305 305 305 305 306 307 308 308 308 306 305 304 302 300 299 297 296 296 295 295 295 295 295 295 295 295 294 294 294 294 294 294 293 293 293 293 293 293 292 293 293 293 293 293 293 292 292 292 292
325 314 315 320 316 314 314 314 314 313 312 310 311 313 314 313 315 315 313 310 312 314 315 313 312 311 310 310 310 310 310 309 307 304 304 305 305 306 307 308 307 308 308 308 308 307 306 306 305 305 305 305 305 305 306 306 306 305 304 303 301 300 299 297 296 296 295 295 295 295 295 295 295 295 294 294 294 294 294 294 293 292 293 292 292 292 292 292 293 293 293 292 292 292 292 292 292
320 315 315 318 316 313 313 316 316 312 312 312 312 311 311 312 313 314 313 311 311 312 312 311 310 309 309 309 309 309 309 310 310 308 305 305 306 306 307 307 307 308 308 308 307 307 307 306 305 305 305 305 304 304 304 304 304 303 302 301 300 299 298 297 296 295 295 295 295 295 295 295 295 295 295 294 294 294 293 293 293 292 292 292 292 292 292 292 292 292 293 293 292 292 292 292 292
316 316 316 316 315 313 313 314 313 313 311 312 313 311 310 311 310 310 310 311 310 309 310 309 309 309 309 309 309 309 309 309 310 309 308 307 307 307 306 306 306 306 307 307 307 307 306 305 305 304 304 303 303 303 303 302 301 300 299 298 298 297 297 296 296 295 295 295 295 295 295 295 295 295 295 294 294 293 293 292 292 292 292 292 291 291 291 291 291 291 292 293 292 292 292 292 292
314 314 313 314 313 312 313 311 310 312 310 310 311 310 309 309 309 309 309 309 309 309 309 309 309 309 309 309 309 308 309 309 309 308 308 308 307 307 307 307 306 306 307 307 306 306 306 305 304 304 303 302 302 302 301 301 300 299 298 297 296 296 296 295 295 295 295 295 295 295 295 295 295 295 295 295 294 293 293 292 292 291 291 291 291 292 292 292 292 291 292 292 292 292 291 292 292
311 312 312 313 312 311 311 310 310 310 310 310 310 309 309 309 309 309 309 309 309 309 309 310 310 310 310 310 310 309 309 310 309 308 308 308 308 308 308 307 306 306 306 306 306 306 305 305 304 304 303 302 301 301 301 300 300 299 297 297 297 296 296 295 295 295 295 295 295 295 295 295 295 295 295 295 294 293 293 292 291 291 291 291 291 292 292 292 292 292 291 291 292 292 291 291 292
311 313 313 312 312 311 310 311 310 309 309 311 311 310 309 309 309 309 309 309 309 310 310 311 311 310 311 311 310 310 310 311 311 310 308 307 308 308 308 307 306 306 306 306 306 306 305 305 304 304 303 301 301 301 301 300 300 300 299 298 298 297 296 296 295 295 295 295 295 295 295 295 295 295 295 294 295 294 293 292 291 291 291 290 291 291 291 291 291 291 291 291 291 291 291 291 291
313 313 313 313 312 311 311 311 311 310 311 313 313 311 309 310 310 309 310 310 309 310 310 311 311 311 311 311 311 311 311 312 312 312 310 307 307 308 307 307 306 306 306 306 306 305 305 304 304 304 302 302 301 301 301 301 301 300 300 299 298 297 296 296 296 295 295 295 295 294 294 295 295 295 294 294 295 295 294 292 291 291 291 290 291 290 290 290 291 291 291 292 291 290 290 291 291
313 313 313 313 311 312 312 312 315 313 310 312 312 310 310 310 310 309 310 310 310 310 311 311 311 311 311 311 312 312 312 312 311 312 311 308 307 306 305 305 305 305 305 305 305 305 304 304 304 303 303 302 301 301 301 300 300 300 299 298 298 297 296 296 296 295 295 295 294 294 294 294 294 294 294 295 295 295 294 293 291 291 290 290 291 291 291 290 291 291 291 291 292 291 290 290 290
313 313 312 312 312 312 311 312 315 313 313 316 313 311 313 314 314 314 312 309 310 310 310 310 310 311 311 311 312 312 312 312 311 311 311 310 308 305 305 305 304 304 304 305 305 305 305 305 304 303 303 302 301 301 300 300 299 299 298 298 297 297 296 296 295 295 295 294 294 294 294 294 294 294 294 294 295 295 295 293 291 291 291 290 290 291 291 291 291 291 291 291 292 293 292 290 290
313 314 312 312 312 312 312 313 312 314 319 318 313 313 316 317 316 319 318 315 315 312 310 312 311 310 311 311 312 311 312 311 311 311 310 309 307 304 305 305 305 304 305 306 306 305 305 304 304 303 302 302 301 301 300 299 299 299 298 297 296 296 295 295 295 295 295 295 295 295 295 295 294 294 294 294 295 295 295 294 292 291 291 290 290 290 291 291 291 291 291 292 292 293 293 292 290
313 317 317 313 311 312 314 313 312 317 321 315 313 317 317 316 316 319 320 320 320 316 314 315 312 310 311 312 312 311 311 311 310 311 309 309 310 308 307 305 305 306 306 306 305 305 305 304 304 303 302 302 301 300 300 299 299 298 298 298 297 297 296 296 296 296 296 295 295 295 295 295 295 295 295 294 294 294 295 294 292 291 290 290 290 290 290 290 291 291 291 291 291 292 292 292 291
316 318 320 318 315 315 315 313 313 317 318 314 315 318 317 316 316 317 316 315 319 318 316 315 311 310 311 312 312 311 311 310 311 312 309 312 314 310 306 305 306 306 306 306 305 304 304 304 303 302 302 301 301 300 300 299 299 298 298 298 298 298 297 297 296 296 296 295 295 295 295 295 295 295 295 295 294 294 294 294 292 291 290 290 290 290 290 290 291 291 290 290 291 291 292 293 292
317 315 315 317 316 316 315 315 316 315 316 316 315 316 319 319 316 317 314 312 318 318 316 315 312 312 313 313 313 312 311 310 310 310 311 315 313 305 303 305 306 306 306 306 305 304 304 303 303 302 302 301 300 300 300 299 299 298 298 298 297 298 298 297 296 296 295 295 295 295 294 295 295 295 295 295 294 294 293 293 292 291 290 290 290 290 290 290 290 290 290 290 290 290 291 292 292
315 313 314 316 318 318 316 318 318 317 318 318 316 316 318 319 317 319 316 315 320 319 316 314 312 314 315 314 314 313 312 311 310 309 310 312 306 303 305 305 306 306 305 305 304 304 303 303 303 301 301 301 300 300 299 299 299 298 298 297 297 297 297 297 296 296 295 294 294 294 294 294 294 294 294 294 294 294 293 292 292 291 290 290 290 290 289 289 290 290 290 290 290 290 290 290 291
312 313 317 319 320 319 319 321 318 317 319 319 320 317 316 319 319 320 320 319 321 319 317 318 317 319 319 318 317 316 313 313 315 313 312 310 303 302 305 304 305 305 304 305 304 303 303 302 302 301 301 300 300 299 299 299 298 298 298 298 298 298 297 296 296 295 295 294 294 293 293 293 293 294 294 293 293 293 293 292 291 291 290 290 290 290 289 289 290 290 290 290 290 290 290 290 290
311 316 320 319 321 319 319 323 319 318 321 319 319 316 314 318 318 318 322 320 318 318 320 324 323 325 327 326 323 318 312 311 314 315 316 314 307 306 305 304 305 304 303 304 304 303 303 302 302 301 300 300 299 299 298 298 298 298 298 298 297 297 297 296 296 295 295 294 294 293 293 293 293 293 293 293 293 293 292 291 291 290 290 290 289 289 289 289 290 289 289 289 289 289 290 290 289
311 317 317 315 319 319 319 323 320 319 321 316 314 314 314 316 315 316 319 318 319 317 318 322 324 326 328 326 322 318 313 312 314 317 318 317 315 315 310 304 304 304 304 304 303 303 303 302 302 300 300 299 299 298 298 298 298 298 298 297 297 297 297 297 296 296 295 295 294 294 293 293 292 292 292 293 293 292 292 291 291 290 290 290 289 289 289 289 289 289 289 289 289 289 289 289 290
312 315 317 316 319 319 321 326 322 320 322 315 311 314 316 318 318 319 316 314 317 317 316 319 320 321 320 318 318 318 318 319 319 318 317 315 317 319 310 302 304 305 303 303 303 303 303 302 302 300 300 299 298 298 298 298 298 297 297 297 297 297 297 297 296 296 295 295 295 294 294 293 293 293 293 293 293 292 292 292 291 291 290 290 289 289 289 289 289 289 289 289 289 289 289 289 289
311 315 318 317 322 324 324 327 324 322 323 315 310 315 321 321 321 322 320 316 320 322 319 315 313 315 316 317 319 320 322 322 319 316 315 314 315 312 304 303 305 305 304 303 303 302 302 302 302 301 300 299 298 298 298 298 297 297 297 297 297 297 297 297 296 296 296 295 295 294 294 294 293 293 293 293 293 292 292 292 291 291 290 290 289 289 289 289 288 288 288 288 288 288 289 289 289
313 316 318 315 320 324 320 322 323 319 320 316 313 319 322 319 316 318 319 316 317 320 316 311 312 317 320 321 321 324 326 322 318 318 317 315 311 304 300 303 306 305 305 305 304 303 303 302 301 301 300 299 298 298 298 298 297 297 297 296 296 296 296 296 296 296 296 295 295 294 294 294 294 294 293 293 293 293 293 292 291 291 290 290 289 289 288 288 288 288 288 287 288 288 288 288 288
315 315 318 315 317 319 316 320 321 316 317 317 317 320 319 318 317 316 319 317 314 315 315 314 316 321 323 324 325 325 324 319 318 318 317 315 312 305 303 305 304 304 305 305 306 306 303 301 301 300 300 299 298 298 297 297 296 296 296 296 296 296 296 296 296 296 296 295 295 294 294 294 294 294 293 293 293 293 293 292 291 290 290 289 289 288 288 288 288 287 287 287 287 287 287 287 287
316 317 317 314 315 317 317 320 321 318 318 318 317 319 318 319 319 318 321 322 317 317 318 317 317 318 320 324 325 321 317 317 317 317 316 315 312 308 306 305 303 302 303 304 305 306 304 301 300 299 299 299 299 298 297 296 296 296 296 296 296 296 296 296 296 296 295 295 294 294 294 294 293 293 293 293 293 292 292 292 291 290 290 289 289 288 288 288 288 287 287 287 287 287 287 287 287
313 316 316 314 317 318 317 319 320 319 319 319 319 319 318 318 318 317 318 319 319 320 321 320 317 316 319 323 323 317 314 315 315 314 313 311 308 305 303 302 301 300 301 302 302 303 303 302 301 300 299 299 298 298 297 296 296 296 296 296 296 296 296 295 295 295 295 295 294 294 294 293 293 293 293 292 292 292 292 291 291 290 290 289 288 288 288 287 287 287 286 286 286 286 286 286 286
310 311 313 314 315 317 317 319 321 321 321 322 322 322 322 320 318 317 317 318 320 322 322 322 320 317 318 321 320 316 313 312 310 308 306 304 302 301 299 298 298 298 299 299 300 301 301 301 300 299 299 298 298 297 297 296 296 296 296 296 296 296 296 295 295 295 295 294 294 294 294 293 293 293 292 292 292 292 291 291 291 290 290 289 288 288 287 287 286 286 286 286 285 285 285 285 285
313 313 315 313 313 316 317 317 319 320 320 322 323 323 323 320 318 317 316 319 322 323 320 321 321 317 316 318 317 312 308 306 303 301 300 299 298 297 296 296 296 296 296 297 297 298 298 298 298 298 298 297 297 297 297 297 296 296 296 296 295 295 295 295 295 295 295 295 294 294 294 293 293 293 292 292 292 292 291 291 291 290 290 289 288 288 287 286 286 286 285 285 285 285 285 285 285
318 316 315 314 313 317 319 318 319 318 318 320 321 321 321 320 320 317 316 318 321 322 319 319 321 318 315 313 309 304 301 299 298 297 296 296 295 294 294 294 294 294 295 295 296 296 297 297 298 298 298 298 298 298 297 297 297 296 296 296 296 295 295 295 295 295 295 295 294 294 294 293 293 293 292 292 292 291 291 291 291 290 290 289 288 288 287 286 286 285 285 284 284 284 284 284 284
Wind_Speed
2 2 1 2 2 2 2 4 2 3 2 1 3 1 4 4 2 3 4 3 1 2 3 1 6 6 3 4 7 6 5 7 6 5 3 5 1 14 31 18 11 28 32 27 26 24 23 22 21 20 19 19 18 19 19 18 18 17 17 15 14 13 13 13 12 12 11 11 10 10 10 10 9 8 7 6 6 5 6 7 7 6 6 7 7 8 8 7 6 5 3 1 1 0 0 1 2
1 1 1 0 2 1 1 4 2 4 4 3 4 3 4 3 1 5 7 5 5 3 4 0 4 1 2 2 3 2 4 6 5 4 3 2 2 16 30 18 16 30 32 28 26 25 24 22 21 20 19 19 18 18 18 17 17 17 17 16 16 14 14 14 14 13 13 12 11 10 9 9 8 7 7 6 5 5 6 7 7 7 7 7 7 7 7 6 7 5 4 3 3 3 3 4 5
0 1 1 1 3 3 1 4 1 1 2 3 5 4 3 1 5 8 8 8 7 3 4 0 2 1 1 2 0 3 5 4 3 3 3 5 5 16 31 19 20 31 30 29 26 26 25 23 22 21 19 18 18 18 17 17 16 16 16 16 16 16 15 15 14 14 13 12 10 9 8 7 7 6 6 6 5 5 5 6 7 7 7 6 5 5 5 6 6 5 6 5 5 6 6 7 7
1 2 3 1 2 3 4 3 1 3 2 3 4 5 3 4 8 7 7 7 6 2 1 1 1 1 4 5 3 1 5 4 4 6 1 8 9 17 31 22 24 32 30 29 27 27 26 25 23 21 19 18 18 17 16 16 16 15 15 15 15 15 15 14 13 14 13 12 10 9 8 7 7 7 6 6 5 5 6 7 6 6 6 5 5 6 8 6 6 6 7 6 6 6 7 8 8
1 3 4 1 2 2 3 2 2 3 4 4 2 6 5 7 7 6 6 6 5 4 2 2 1 2 1 5 3 1 6 3 4 9 3 7 10 19 30 24 28 33 31 31 28 28 26 26 24 22 20 18 18 16 16 16 16 15 16 15 14 15 15 14 13 13 12 11 10 9 8 7 7 7 7 7 6 6 7 7 7 7 7 7 4 6 7 5 5 5 5 5 6 6 6 7 6
0 3 6 5 3 1 3 1 2 2 5 5 3 7 7 7 6 6 7 6 3 5 3 2 1 1 1 3 3 4 5 0 1 8 6 4 11 21 28 26 30 33 33 32 30 29 27 27 26 23 20 18 17 15 15 16 16 16 17 16 15 15 15 14 13 13 12 11 10 10 9 8 8 8 8 8 7 7 8 8 8 8 8 8 6 6 5 5 5 4 4 4 5 5 5 5 5
1 1 4 5 2 2 3 3 4 4 5 6 4 7 8 5 4 3 6 3 1 3 1 1 1 2 3 3 2 6 6 4 1 4 7 5 11 22 28 28 30 32 32 32 31 30 29 28 27 24 21 19 17 15 16 17 17 16 17 16 16 15 15 14 13 13 12 12 11 11 11 11 10 10 10 9 9 9 9 9 10 10 8 8 7 6 5 5 4 3 3 3 3 3 3 4 4
3 1 1 3 1 3 2 3 4 4 4 4 5 7 9 4 2 2 4 1 2 2 0 2 1 1 5 2 2 5 5 10 5 3 7 7 12 23 28 29 31 31 32 32 31 30 29 28 26 25 23 21 19 18 19 18 17 16 17 16 16 16 14 14 14 13 13 13 13 13 13 12 11 11 11 10 10 10 11 11 10 10 9 8 7 5 5 4 3 3 2 2 2 2 2 2 2
5 3 0 2 2 1 1 3 4 4 5 5 5 7 9 4 3 3 5 4 3 2 2 4 3 3 4 3 4 6 4 11 10 6 7 8 14 23 29 30 31 32 31 31 30 29 29 28 26 25 23 22 21 22 21 19 18 18 18 17 17 16 15 15 15 14 14 14 14 14 14 13 12 12 12 11 11 11 11 11 10 10 9 8 6 5 4 4 3 3 2 2 1 1 0 1 2
4 4 1 1 2 1 4 3 3 3 6 5 6 10 9 5 3 4 4 5 4 1 4 3 3 4 3 3 6 5 2 9 12 10 9 9 15 24 29 30 30 31 31 30 30 29 28 28 27 26 24 21 22 22 20 19 19 19 18 17 18 17 16 15 15 15 15 15 15 15 14 14 13 13 12 12 11 11 11 10 10 10 9 8 7 6 6 6 5 4 3 2 2 2 1 1 1
2 4 2 2 2 1 4 4 4 5 6 5 7 9 8 5 3 3 4 5 4 2 3 2 2 4 1 4 5 3 4 7 12 13 10 11 17 25 29 30 29 29 30 30 28 28 27 27 27 25 24 22 22 21 20 20 19 19 18 18 18 17 17 16 16 16 16 16 15 15 14 14 13 13 12 12 11 11 10 10 10 10 9 9 8 8 7 7 6 5 4 3 3 2 2 1 2
2 3 4 3 1 3 4 3 5 7 7 5 6 5 2 4 4 3 5 4 2 2 5 5 2 3 2 4 5 4 5 8 13 12 11 13 19 25 28 29 29 27 27 27 27 28 28 27 27 25 24 24 23 22 21 21 20 20 19 19 19 18 18 17 17 16 16 16 15 15 14 14 14 13 13 12 12 11 11 11 11 11 10 9 9 9 8 7 6 5 4 3 2 2 1 1 2
2 2 5 1 3 2 2 3 5 6 7 4 5 5 1 5 4 5 4 3 2 1 7 7 2 2 2 5 4 5 5 7 12 12 11 15 21 25 27 29 28 27 26 26 27 27 28 28 27 26 25 25 24 23 22 22 22 21 20 20 20 19 18 18 17 16 16 16 16 15 16 16 15 14 14 13 13 12 12 12 12 11 10 10 8 7 6 5 4 4 3 3 2 1 1 1 2
3 3 4 1 1 1 2 3 4 2 5 5 4 4 1 2 4 4 5 2 6 4 4 5 5 2 3 4 5 5 3 4 13 13 12 16 22 25 27 28 28 28 27 26 27 27 28 28 28 27 26 26 25 24 23 23 23 22 21 21 20 20 19 18 17 16 16 17 17 17 17 17 16 15 15 14 14 14 13 12 12 11 10 9 8 7 5 4 3 3 3 2 1 1 2 2 2
3 2 4 2 1 2 3 3 1 2 4 6 3 2 2 4 4 3 6 5 7 5 1 1 5 2 3 3 4 5 4 3 14 14 15 19 22 24 25 27 28 28 28 27 27 28 28 27 28 27 27 27 26 25 24 24 23 23 23 22 22 21 20 19 18 17 18 19 18 18 18 17 17 17 16 16 15 14 14 13 12 11 10 9 8 7 5 4 3 2 1 1 1 1 2 2 3
3 4 4 1 1 2 3 3 1 1 5 6 3 1 3 6 3 3 5 4 4 3 0 3 4 2 4 6 6 4 5 5 15 15 17 20 21 22 23 25 27 28 29 29 29 29 29 28 29 28 28 28 27 26 25 25 25 24 24 24 24 22 21 21 20 20 20 20 20 20 19 19 18 18 18 17 16 15 14 14 13 12 11 10 8 7 6 5 4 3 2 1 1 1 2 2 3
3 4 3 1 2 2 4 4 4 3 6 6 5 1 1 7 2 2 1 2 4 3 1 5 3 3 6 6 4 4 1 11 17 16 19 19 20 20 21 24 26 28 31 31 31 31 30 30 30 30 30 29 28 28 27 26 26 26 25 25 25 23 22 22 22 21 21 21 21 21 20 20 20 19 19 18 17 16 15 15 14 13 11 10 9 8 7 6 5 4 4 3 3 3 3 3 3
3 3 2 2 3 4 6 7 7 4 4 6 4 1 1 8 5 2 1 1 3 4 4 6 6 7 9 7 5 3 6 15 19 20 20 19 19 19 21 25 27 31 33 33 34 33 33 32 32 32 31 31 30 29 28 28 27 27 27 26 25 24 23 23 23 23 23 23 22 21 21 21 20 20 19 18 17 17 16 15 14 13 12 11 10 9 8 7 6 6 5 5 4 4 4 3 3
3 3 2 4 6 6 6 8 6 4 4 6 6 3 3 7 4 1 3 6 5 6 8 6 7 11 12 9 6 6 12 18 22 24 22 22 23 23 23 26 29 31 34 37 38 36 35 34 33 33 33 33 32 30 30 29 29 29 28 27 26 25 25 25 25 24 24 23 22 22 21 21 21 20 19 19 18 17 17 16 15 14 13 12 11 10 9 8 7 6 6 5 5 4 4 4 4
2 4 2 6 7 5 5 7 8 8 4 5 8 4 2 6 3 0 2 7 6 7 10 7 8 12 13 8 7 10 15 19 22 24 23 24 26 27 26 27 31 35 39 40 39 38 38 37 36 35 35 35 33 32 32 31 30 30 29 28 27 26 26 26 26 25 24 23 23 22 22 22 22 21 20 20 19 19 18 17 16 15 14 13 11 10 10 9 8 7 6 6 5 5 4 4 4
2 4 5 7 4 4 7 9 9 8 3 4 6 5 6 6 2 3 3 5 9 9 11 11 13 14 13 8 8 12 14 16 19 21 21 23 25 27 29 32 35 37 37 35 36 39 40 39 38 36 36 36 35 34 34 33 33 32 31 29 28 28 28 27 26 25 25 24 24 24 24 23 23 22 22 21 20 19 19 18 17 15 15 14 13 12 11 10 9 8 7 7 6 6 5 5 4
2 4 7 6 5 4 8 7 7 5 3 4 4 6 8 4 1 5 6 5 10 10 8 12 14 13 12 9 7 9 10 12 15 19 20 22 26 28 30 31 32 31 30 34 39 41 41 41 39 38 37 37 36 36 36 35 34 34 33 32 30 29 29 28 27 26 26 26 26 26 26 25 24 24 23 22 21 20 19 19 18 17 16 15 14 13 12 11 10 9 8 8 7 6 6 5 5
3 5 5 7 6 6 6 3 4 4 3 4 4 5 5 6 8 6 10 11 17 15 9 10 12 11 10 6 6 8 11 12 14 20 25 26 28 31 32 33 33 32 33 37 39 39 40 41 41 40 39 39 38 37 37 36 36 36 35 33 32 31 30 29 29 28 27 28 28 28 28 27 26 25 24 23 22 22 21 20 20 19 17 16 14 13 11 11 10 9 8 8 7 7 6 6 5
3 5 5 6 6 9 8 4 3 3 6 8 4 5 8 12 9 2 8 13 19 18 10 9 10 9 8 6 8 10 12 14 18 26 31 32 34 37 37 36 34 33 33 36 36 38 41 42 43 42 41 41 39 39 39 38 38 37 36 35 34 33 32 31 30 29 28 29 30 29 29 28 27 26 26 25 24 24 23 22 21 20 18 16 15 13 11 11 11 10 9 8 7 7 6 6 5
5 7 6 3 4 8 9 6 6 7 8 7 3 8 16 15 6 6 10 14 19 19 12 9 10 10 8 10 11 11 11 13 18 24 28 31 33 33 33 31 29 30 34 36 37 39 41 43 44 45 44 43 41 41 40 40 40 39 38 38 36 34 33 32 31 30 30 31 31 30 30 29 29 28 27 26 26 25 25 23 22 20 18 17 15 14 12 11 11 11 9 8 7 7 6 5 4
7 8 5 3 5 8 7 7 7 8 6 4 4 12 18 9 4 11 13 16 19 14 12 8 7 11 10 11 12 11 12 13 16 21 26 29 27 26 30 30 30 35 38 37 38 40 40 41 44 46 46 45 43 43 43 43 42 41 41 40 38 36 35 33 32 32 32 32 32 32 31 31 30 29 28 28 28 27 26 25 23 21 19 17 16 14 13 12 11 11 10 9 8 7 6 5 4
5 5 6 7 8 8 5 6 8 5 5 7 8 14 17 5 1 8 9 10 8 6 10 7 4 10 10 10 10 10 11 15 19 19 19 20 22 27 32 31 35 40 37 35 39 40 39 41 44 46 46 46 45 45 45 45 44 44 43 41 40 38 37 35 34 34 34 34 34 33 33 32 31 30 29 29 29 29 28 26 24 22 20 18 17 16 15 13 12 11 10 9 8 7 6 5 4
2 1 7 9 6 9 7 7 8 4 4 9 12 11 13 4 2 13 16 6 1 5 12 10 7 10 10 9 9 8 10 17 19 15 14 18 25 31 33 35 40 40 38 41 42 39 40 42 43 44 46 46 47 47 47 46 46 45 44 43 42 40 38 37 37 37 37 37 36 35 34 33 32 31 31 31 31 30 29 27 25 23 21 20 19 17 16 15 13 12 11 10 9 8 6 5 4
1 3 5 11 7 10 11 7 5 7 4 6 9 4 8 6 10 18 18 6 1 5 10 12 11 10 10 9 8 7 10 14 14 14 22 28 32 32 35 41 43 40 41 43 39 38 42 42 42 43 45 47 48 49 49 49 49 47 46 45 44 42 40 39 39 39 39 38 38 37 36 35 34 33 33 33 32 31 30 28 26 24 23 21 20 19 17 16 14 13 12 11 10 8 7 5 4
3 2 1 8 7 10 8 2 2 4 5 6 6 3 6 10 17 19 12 6 4 6 10 12 10 9 10 9 7 8 10 10 12 20 30 33 34 32 36 42 39 39 39 36 37 41 43 42 42 43 44 47 49 49 49 50 50 49 49 47 46 44 43 42 41 41 41 40 40 39 38 37 36 35 34 34 33 33 31 29 27 26 24 23 21 20 18 16 15 14 13 12 10 8 7 6 5
3 2 1 2 2 8 7 2 3 1 4 7 6 5 8 10 18 20 7 4 6 7 10 11 9 9 9 9 8 9 10 11 16 26 32 34 35 33 37 39 36 37 36 35 41 43 42 42 43 44 45 47 49 50 51 52 52 51 51 49 48 47 45 44 44 43 43 42 41 41 40 39 38 37 36 35 35 34 32 30 28 27 26 24 22 21 19 18 16 15 13 12 10 9 8 6 5
2 2 4 2 3 6 11 7 6 7 5 4 6 5 8 10 16 19 5 4 6 7 10 11 11 10 10 10 8 10 11 12 17 25 31 34 34 35 38 39 35 37 39 41 42 40 40 42 43 44 45 47 49 51 52 52 51 51 51 50 50 49 47 47 46 45 44 43 43 42 41 40 39 38 37 37 36 35 33 31 30 28 27 25 24 22 21 19 18 16 14 12 10 10 9 7 6
3 2 5 5 5 4 8 11 6 10 4 2 7 6 7 7 11 14 8 3 6 6 11 12 13 12 11 11 8 11 13 13 14 19 29 33 33 36 39 39 38 38 41 42 40 39 41 42 43 45 46 48 49 50 50 50 50 49 49 49 49 48 48 48 47 46 46 45 44 43 42 41 41 40 39 38 37 36 34 32 31 29 28 27 25 24 22 20 19 17 15 14 12 11 10 8 6
3 2 4 5 7 5 4 9 7 5 6 5 7 8 11 11 9 11 13 11 7 7 13 15 14 13 13 11 10 13 14 15 15 16 25 29 31 35 37 38 37 37 39 39 39 41 41 41 43 45 46 47 47 47 48 47 46 45 45 45 45 46 47 47 47 47 47 46 45 45 43 43 42 41 40 40 38 36 34 33 32 31 30 28 27 25 23 21 19 17 16 15 13 11 10 8 6
7 6 5 4 5 6 6 8 6 2 3 4 5 9 14 15 13 12 14 16 14 14 15 15 15 14 15 12 12 15 15 16 17 20 25 25 27 31 32 34 33 34 36 37 38 39 39 39 41 43 45 44 44 44 44 42 41 40 40 40 41 43 44 45 46 47 47 47 46 46 45 44 44 43 42 41 40 37 36 35 34 32 31 30 28 27 25 24 22 19 18 16 15 13 11 9 8
10 7 5 6 6 7 8 11 9 4 5 6 9 14 15 15 15 14 16 14 15 18 17 15 14 13 14 13 13 15 16 17 17 23 27 22 22 25 26 29 31 33 35 36 36 37 38 39 39 42 43 43 42 41 40 38 38 38 37 37 39 42 44 45 46 47 47 48 48 47 47 46 45 44 43 43 41 39 37 36 35 34 33 31 31 29 28 26 24 22 20 18 17 15 12 10 9
4 4 6 8 8 10 9 12 10 1 3 8 11 17 17 14 15 15 16 13 12 18 20 18 15 13 13 14 16 16 16 16 13 18 25 22 20 20 22 25 27 29 33 35 36 38 40 40 40 42 42 42 42 42 42 42 42 40 38 41 44 45 45 45 46 48 49 49 49 48 48 48 46 46 45 44 42 40 39 37 37 36 35 34 32 31 29 27 25 23 21 19 17 16 14 12 10
5 5 7 7 7 12 10 12 13 1 1 7 8 17 18 12 15 15 14 14 14 17 20 22 20 16 13 14 19 18 14 12 10 14 19 18 17 19 21 23 25 28 31 34 36 38 39 39 41 42 40 41 43 44 44 45 47 46 45 47 48 46 46 47 49 51 51 50 50 49 49 48 47 47 46 45 43 42 40 39 39 38 37 35 33 31 29 28 26 25 23 22 19 17 14 12 12
8 5 6 7 5 9 10 9 11 2 1 6 7 15 15 11 16 17 17 18 16 15 15 20 22 17 16 17 16 14 12 12 11 12 12 12 14 17 19 21 23 27 29 31 35 36 36 38 41 40 39 42 44 45 45 46 46 46 44 41 40 39 40 45 45 46 48 48 48 48 48 48 48 47 46 45 45 44 42 41 40 40 39 37 36 34 31 30 28 27 26 24 21 18 14 13 13
7 6 6 7 3 5 7 5 6 4 3 6 10 15 14 11 15 16 19 18 14 13 14 19 19 16 19 20 13 9 11 15 14 13 12 10 10 11 13 16 19 23 25 28 31 33 35 39 41 41 41 42 44 45 45 44 40 39 37 32 31 33 33 36 38 39 43 44 44 46 47 48 48 48 47 46 46 45 44 43 42 42 41 40 38 36 35 33 32 30 28 26 23 20 16 14 13
8 8 6 9 9 10 9 5 7 7 5 4 7 13 12 7 9 11 10 8 9 12 14 15 17 19 19 15 12 9 11 14 14 14 14 8 7 9 11 14 16 19 24 27 30 34 36 39 40 40 41 41 43 44 43 40 36 35 33 27 25 28 27 29 33 35 37 40 43 46 48 48 48 48 48 48 47 46 45 45 44 43 43 41 40 38 37 35 34 32 30 28 25 22 19 15 14
8 6 11 16 15 11 11 8 7 6 5 4 6 9 10 2 5 7 5 3 7 8 9 15 19 20 14 8 11 10 9 10 10 12 12 8 7 9 12 13 15 20 25 28 30 33 35 37 37 39 40 40 41 42 42 41 38 37 37 32 29 29 28 32 39 40 40 43 46 48 48 49 50 49 49 49 48 47 47 46 46 45 44 43 42 40 38 37 35 33 31 30 27 24 21 18 17
8 5 12 16 12 9 10 8 4 1 4 3 4 1 10 5 3 9 8 5 9 7 9 17 18 14 8 6 9 9 8 8 7 7 7 7 7 8 10 13 16 20 24 25 27 30 32 33 34 37 39 39 39 40 41 41 41 40 42 41 38 36 35 38 43 43 45 48 47 47 48 49 49 50 50 50 49 48 48 48 47 46 45 44 43 42 40 39 37 34 32 31 28 26 23 21 21
7 5 8 9 8 8 7 4 4 4 3 3 2 5 6 11 5 5 5 5 8 11 12 16 14 9 8 8 10 10 9 7 6 6 6 5 7 7 10 15 16 18 21 21 23 26 30 31 32 34 37 38 39 39 41 44 44 43 44 42 40 41 41 39 39 39 42 44 43 45 47 47 48 49 49 49 49 49 49 49 48 47 46 45 45 43 42 40 37 35 33 32 30 27 25 23 23
7 3 5 6 6 6 5 5 5 2 3 3 3 5 3 12 6 2 2 4 7 13 14 16 13 8 8 9 10 11 8 5 4 3 4 6 8 8 12 15 16 17 17 18 20 22 25 28 29 31 33 36 37 39 42 45 46 44 43 43 41 42 40 35 32 35 37 39 40 41 43 44 46 47 48 49 49 50 50 49 49 48 47 47 46 45 43 41 38 37 35 34 32 29 27 24 24
4 5 5 4 3 3 4 3 3 3 3 5 6 6 3 11 6 4 3 2 7 11 12 12 9 6 7 8 9 10 8 5 3 1 3 7 8 11 13 14 15 14 12 13 16 18 20 23 26 29 32 34 35 38 41 44 45 44 43 44 42 40 36 31 29 32 35 36 37 38 39 42 44 46 47 48 49 50 50 50 50 49 49 48 47 46 44 42 40 38 36 35 33 31 29 26 24
3 5 4 5 4 4 4 1 3 2 6 6 10 12 7 7 5 4 3 4 6 7 7 8 8 7 8 6 7 7 6 5 4 4 5 7 10 12 12 13 14 12 9 9 12 15 17 20 24 28 31 32 33 36 39 41 43 43 44 45 44 40 35 32 31 33 35 36 37 38 39 40 42 45 47 47 49 50 50 50 50 50 49 48 48 47 46 44 42 40 37 36 34 33 31 29 26
3 3 3 3 4 4 4 4 3 1 8 5 11 13 10 9 6 2 4 5 4 6 6 7 8 8 8 5 6 6 4 4 5 7 6 7 8 9 9 11 12 11 9 8 9 12 15 18 22 26 28 31 32 34 37 39 41 43 44 43 43 40 36 36 36 36 37 39 39 39 39 39 41 42 44 46 49 50 50 49 49 49 49 50 50 48 47 45 43 41 39 37 36 34 32 31 30
3 3 3 1 4 3 2 3 0 4 7 4 7 8 7 10 7 5 9 10 8 8 7 8 8 8 8 6 6 6 5 5 5 6 6 6 7 7 7 11 12 11 9 8 9 11 13 17 20 24 28 30 32 34 37 39 41 44 45 42 41 40 38 39 40 39 40 42 41 40 41 41 41 42 44 48 50 50 50 50 50 51 51 51 51 49 48 46 45 43 41 40 38 37 35 34 33
6 5 5 4 2 2 3 4 2 5 6 3 3 4 4 7 5 9 14 13 11 7 8 9 8 8 8 6 7 7 6 6 5 6 6 5 6 6 6 9 10 9 8 7 9 10 12 16 19 24 27 29 32 34 36 39 42 44 43 42 40 39 39 41 41 40 40 41 42 42 44 44 44 46 49 50 50 49 50 51 51 51 51 51 50 49 49 47 46 45 43 42 41 39 37 36 34
6 5 5 4 4 4 4 4 5 6 4 2 1 3 4 3 2 7 11 8 6 4 5 5 5 6 6 6 7 7 6 5 5 6 6 5 6 6 7 10 10 9 7 7 9 10 13 17 20 23 27 29 32 34 37 40 42 41 39 39 39 39 40 40 40 40 40 41 42 43 44 45 46 48 48 48 48 49 50 51 51 51 51 50 49 49 48 47 46 45 44 43 42 40 39 37 36
3 3 3 3 4 5 3 4 5 3 2 2 3 4 5 4 5 7 7 6 7 6 4 5 5 6 4 5 7 6 5 5 5 6 7 8 6 6 8 9 7 6 6 8 10 12 15 18 19 23 26 28 30 34 37 39 39 38 37 38 38 38 38 38 39 40 40 40 41 42 43 45 46 46 45 46 47 49 51 51 50 51 51 50 50 49 48 48 47 46 45 44 43 42 41 39 38
2 3 3 5 3 5 2 5 3 1 4 6 5 7 6 5 8 5 1 3 5 5 5 4 7 7 4 6 6 4 5 6 6 6 7 8 6 4 6 6 7 10 12 13 15 17 19 19 18 21 24 26 30 33 36 35 35 35 37 38 38 38 39 40 40 40 39 38 38 39 41 42 44 44 45 46 47 48 50 50 50 50 50 50 50 50 49 49 48 47 46 46 45 43 42 41 39
5 3 5 2 2 3 2 2 2 2 8 7 7 13 9 6 8 4 6 7 6 5 5 4 6 5 5 7 5 4 6 6 7 7 7 8 7 8 13 20 26 27 25 22 20 22 22 20 19 20 23 26 30 32 32 33 33 34 36 37 39 39 39 40 39 37 36 36 38 39 39 40 41 42 43 43 45 47 48 49 49 49 49 49 49 49 49 49 48 48 47 46 45 44 43 42 41
4 3 2 2 2 3 1 2 2 5 9 6 7 13 10 7 10 7 9 11 8 6 5 6 6 5 5 6 6 6 7 6 7 6 6 8 11 15 21 28 31 30 27 25 23 23 23 22 22 22 24 27 27 27 28 30 31 33 34 35 37 39 39 39 38 35 34 35 38 39 39 40 39 39 41 41 43 45 46 47 48 48 48 48 48 48 48 48 48 48 47 46 45 44 43 42 41
2 2 2 1 2 3 2 2 2 3 7 7 7 9 8 8 10 10 11 9 6 7 6 5 7 6 5 5 6 7 7 8 8 9 12 15 16 19 23 26 27 27 27 26 25 23 21 21 21 21 24 25 23 23 25 28 30 32 33 34 36 38 40 40 38 36 35 36 37 38 39 40 39 39 40 41 42 44 46 47 48 48 48 48 48 47 47 47 47 47 47 46 45 45 44 43 42
2 1 3 3 2 1 2 2 1 3 6 6 7 7 7 7 10 14 12 5 6 7 5 6 7 6 6 7 6 7 9 11 14 14 14 15 14 18 24 26 27 28 30 31 30 28 25 22 20 19 21 21 22 23 25 27 30 31 33 34 35 36 37 38 38 37 38 39 38 39 40 40 40 41 41 42 43 44 46 47 47 48 48 48 48 47 47 47 47 47 46 45 45 44 44 43 41
5 5 6 6 6 3 5 6 4 3 5 6 8 9 8 5 8 12 9 2 5 4 3 5 8 8 9 9 9 12 14 14 14 13 12 13 12 16 22 26 28 29 31 33 34 34 34 32 30 27 25 24 24 25 25 27 29 31 34 36 35 35 35 35 36 37 39 40 40 40 40 39 41 42 42 43 44 44 45 46 46 47 48 48 48 48 48 48 47 47 46 45 44 44 44 42 40
Wind_Direction
234 230 263 260 287 273 334 48 70 322 67 304 275 221 260 237 257 278 268 260 235 254 229 174 141 145 129 176 201 194 182 172 172 148 210 244 221 179 175 176 172 169 168 167 171 170 167 167 171 172 174 175 174 176 177 178 178 179 179 180 177 175 174 170 165 165 166 165 163 157 154 151 147 146 134 129 145 149 139 125 119 124 121 120 125 124 125 142 154 162 186 218 269 265 149 330 336
228 254 336 160 8 27 252 67 91 332 42 316 281 184 259 300 304 245 234 218 212 264 312 197 138 129 79 127 172 171 240 213 191 177 246 246 171 182 175 178 173 171 171 168 172 170 166 167 169 169 171 173 173 176 176 176 176 177 176 174 172 170 170 168 165 165 166 163 162 158 160 156 153 153 141 144 156 161 153 136 140 138 131 131 127 126 133 168 178 174 199 216 246 262 279 296 302
227 307 4 179 22 47 77 42 104 49 58 275 278 233 262 294 235 238 231 220 224 266 319 322 113 318 162 303 276 161 252 270 219 213 283 193 182 181 176 178 173 173 173 170 173 171 169 168 169 169 171 173 174 176 176 176 176 175 175 173 171 170 170 170 167 166 167 164 166 170 172 166 166 168 158 170 178 173 153 149 170 153 140 139 129 161 182 203 206 199 213 229 245 256 270 280 286
58 6 349 203 45 34 66 35 141 129 205 236 270 261 232 218 236 252 251 243 249 254 323 130 143 232 177 238 254 198 254 272 223 194 224 200 193 178 176 175 173 176 177 174 175 174 173 171 172 172 174 176 176 177 178 180 179 176 177 177 176 174 174 174 172 172 174 175 178 185 183 173 175 184 184 188 185 171 153 160 174 150 151 144 123 198 217 226 225 222 229 243 253 258 266 271 277
56 32 4 76 94 36 93 62 102 129 220 192 221 265 232 219 244 270 277 281 264 204 152 110 259 294 163 225 205 243 240 261 243 203 215 212 194 178 176 173 173 178 180 178 178 178 177 176 176 176 180 183 182 182 182 185 185 184 185 184 183 183 183 182 182 183 189 191 190 195 194 187 185 190 192 192 182 167 155 151 152 149 172 172 152 204 220 230 230 236 242 251 256 258 261 264 270
38 47 30 61 92 92 116 206 188 210 229 170 200 262 248 227 232 270 294 292 254 201 180 117 228 331 290 256 202 213 218 127 204 205 222 219 191 181 177 173 175 181 182 182 181 182 183 183 183 182 185 188 189 189 189 193 193 193 195 194 194 194 192 191 192 194 196 198 200 200 197 197 194 190 189 187 175 163 154 151 163 174 184 187 191 209 216 226 234 241 244 249 253 253 255 258 264
11 356 22 63 55 32 119 218 214 236 242 176 195 256 269 257 208 285 323 313 262 218 199 219 167 93 262 282 269 240 219 209 153 212 223 207 187 182 179 175 178 183 184 185 186 187 189 191 191 189 188 190 192 195 197 200 198 199 202 198 200 202 197 198 199 198 198 198 200 198 195 196 189 182 180 174 165 165 170 179 190 195 195 196 199 207 209 215 226 233 238 241 241 241 245 253 259
48 49 1 93 82 10 109 252 242 218 249 222 220 244 269 275 173 311 320 293 258 257 265 273 135 130 270 339 277 257 234 221 224 251 222 204 187 183 183 179 181 185 186 188 189 191 193 195 194 190 188 187 190 199 202 201 200 202 205 200 202 206 200 200 200 197 196 194 193 191 191 190 182 173 169 166 171 182 190 195 196 197 198 200 198 199 199 196 206 214 217 216 220 225 235 257 274
39 40 77 95 143 343 15 284 270 233 256 266 265 254 269 267 193 268 277 270 266 271 266 239 163 189 287 350 261 280 282 224 217 231 218 206 190 184 186 184 184 186 187 190 191 193 194 197 196 191 190 189 192 201 203 200 200 200 203 201 200 203 198 196 194 191 189 188 186 183 183 181 175 169 168 174 187 193 194 194 194 195 196 197 195 185 173 162 163 168 169 172 162 149 153 322 324
32 27 155 94 124 299 311 273 258 256 254 261 273 262 267 255 199 224 236 271 253 253 289 215 166 228 287 311 262 281 258 216 211 219 220 206 190 187 189 188 188 187 188 191 192 195 196 199 198 195 194 191 194 200 198 198 198 198 199 197 197 197 194 191 188 187 185 184 182 180 179 174 172 172 179 188 192 193 190 191 189 188 188 185 178 161 152 146 144 146 146 139 128 113 95 44 358
33 356 106 91 73 260 263 258 268 271 274 292 286 267 262 230 191 227 210 270 253 238 282 128 179 230 266 290 259 248 225 216 208 212 219 203 189 189 191 190 192 192 192 192 193 197 198 200 199 197 194 190 194 196 194 196 196 196 196 194 194 193 190 189 188 186 184 184 182 179 177 174 179 185 190 192 190 188 184 181 177 176 173 167 159 153 152 151 149 147 139 130 122 106 89 49 14
76 338 62 98 174 219 225 255 280 285 298 305 285 293 304 159 155 225 207 241 247 285 249 184 195 171 139 280 264 270 261 231 207 207 217 200 189 190 192 193 193 196 197 195 195 197 198 199 198 196 192 189 192 193 193 194 194 194 193 192 192 192 191 189 187 185 184 183 181 179 182 187 193 195 193 191 187 182 176 172 169 167 161 155 154 154 156 156 155 152 147 138 126 108 82 24 4
114 134 85 134 195 185 222 251 281 308 313 278 250 291 26 137 186 222 185 216 208 329 260 212 160 100 211 254 286 309 290 237 205 203 211 197 191 190 193 194 195 198 200 200 199 198 198 199 198 196 192 190 193 193 194 194 194 193 192 193 193 193 191 190 188 185 184 183 185 189 193 198 198 196 194 189 183 177 173 170 167 165 159 157 157 157 155 153 149 144 140 132 122 99 72 20 1
139 147 111 182 212 128 209 266 292 320 289 261 254 291 322 189 220 197 148 222 241 206 246 213 145 108 256 264 314 303 308 234 198 200 200 193 192 191 194 195 196 199 201 203 203 201 198 199 199 199 196 193 194 193 195 196 194 193 193 193 193 193 192 190 187 185 189 193 198 200 200 200 197 195 192 186 182 178 174 170 167 164 161 162 162 159 156 148 138 125 111 96 81 43 22 6 356
142 134 91 132 331 339 213 242 259 136 258 261 262 312 315 248 171 155 182 210 255 219 206 215 155 180 216 204 260 256 311 233 189 194 190 188 190 192 196 197 198 200 203 205 205 205 202 202 203 202 203 199 197 194 195 197 196 194 194 194 194 194 191 189 190 193 199 202 204 204 202 199 195 194 189 186 184 180 175 171 167 165 165 166 164 160 155 149 141 128 116 84 27 355 342 340 335
119 113 68 74 262 302 223 216 157 147 254 248 261 317 316 279 160 177 224 180 274 277 136 215 183 211 188 187 224 259 314 204 183 187 182 184 188 192 198 198 201 202 206 208 207 209 207 207 206 205 207 205 202 197 197 199 197 196 195 195 196 194 192 195 199 203 205 204 206 205 203 199 195 192 189 189 187 183 179 174 170 169 171 169 165 162 157 157 157 162 174 194 228 257 280 288 296
83 86 75 305 214 214 211 200 190 200 259 268 298 357 295 300 281 219 246 110 262 279 265 241 228 224 201 204 252 305 278 178 178 179 176 180 186 190 199 201 203 205 208 210 210 211 211 210 209 209 209 209 206 199 199 201 199 198 197 198 199 198 198 203 205 205 206 207 208 207 203 200 198 195 192 192 188 185 182 178 176 175 176 173 169 169 168 171 174 181 187 195 205 214 227 239 254
68 88 127 238 202 202 193 191 202 194 262 270 297 47 239 291 294 281 6 4 279 284 278 266 274 258 238 244 275 287 178 174 177 176 174 179 185 190 200 203 205 208 209 210 212 212 212 213 212 212 211 211 208 202 202 204 203 202 202 203 204 204 205 207 207 208 210 209 209 207 204 202 199 197 194 194 191 188 185 182 181 180 179 178 176 177 178 180 181 183 185 189 192 197 205 212 223
108 118 161 234 204 213 199 189 202 204 240 266 286 291 236 257 270 7 285 282 304 297 280 273 277 270 261 251 235 212 181 179 182 180 181 183 188 195 200 204 207 210 211 212 213 213 213 214 214 214 213 211 209 206 205 206 207 206 207 207 207 208 208 209 211 212 212 211 209 206 203 201 199 198 196 195 193 189 187 186 185 184 183 182 182 181 180 179 179 178 177 178 181 182 189 193 202
165 131 204 244 217 231 233 208 212 221 243 292 290 291 236 246 244 123 250 282 290 260 261 263 263 261 259 241 192 191 186 186 188 188 191 194 197 200 201 203 207 212 214 214 214 213 214 215 215 215 214 212 211 209 208 208 209 209 210 210 210 210 210 212 214 214 214 212 208 205 202 200 198 198 196 195 194 191 189 188 188 186 184 182 181 180 176 175 173 172 171 171 174 174 178 184 185
175 150 206 235 196 230 242 217 223 236 233 249 278 326 291 263 188 201 224 295 283 248 239 240 246 251 251 241 193 189 189 193 197 199 203 204 206 207 209 208 210 215 215 216 216 215 215 215 216 215 214 213 213 212 210 210 210 211 211 211 212 211 213 214 214 215 214 212 208 205 202 200 199 198 198 196 195 193 191 189 187 185 183 180 178 176 171 169 167 167 169 168 171 171 175 179 177
169 211 228 228 164 231 247 212 223 223 183 224 271 300 285 281 176 207 186 228 262 252 229 221 236 244 245 238 200 189 196 202 203 208 211 212 213 214 216 216 216 218 216 218 218 218 217 216 216 215 214 214 215 215 213 212 211 211 212 212 212 212 214 214 214 214 212 210 208 206 203 201 201 199 199 197 196 194 193 190 187 185 183 180 176 174 169 166 165 165 167 168 170 172 173 173 171
232 250 250 240 194 230 253 207 210 183 183 247 250 280 297 301 282 217 175 218 252 257 235 217 234 240 241 227 178 190 206 208 209 211 212 213 216 217 217 218 218 217 217 219 220 219 218 217 217 215 215 215 216 216 215 214 213 214 213 213 213 212 213 214 215 214 211 210 208 208 205 204 202 200 199 198 196 195 194 192 188 187 185 181 175 173 170 165 165 165 167 170 168 169 168 166 165
240 257 256 248 213 229 251 252 252 226 244 252 261 322 292 270 279 220 181 224 253 260 246 227 249 247 235 218 194 209 212 211 217 217 216 216 217 219 220 219 219 218 219 220 220 220 219 218 217 216 217 217 217 216 216 216 215 215 214 214 215 214 214 215 216 214 212 210 209 209 207 206 204 201 200 198 197 195 195 193 191 188 184 182 175 172 173 167 166 167 168 170 167 166 165 163 161
222 236 246 249 226 240 259 271 269 263 257 253 277 290 268 257 271 275 239 241 256 263 263 245 254 258 238 233 226 222 221 221 225 226 225 224 224 225 226 224 221 222 222 222 221 221 221 219 218 218 217 218 218 217 216 217 216 216 215 216 216 215 216 217 217 215 213 211 210 210 209 208 206 203 202 199 198 196 195 194 192 189 184 182 177 173 175 172 168 168 169 170 167 165 164 163 160
219 223 251 267 266 267 275 275 252 250 251 210 220 261 266 269 282 271 246 240 255 263 273 264 247 257 244 238 235 223 226 227 227 230 230 230 230 230 231 227 223 225 225 223 222 222 222 220 220 219 218 218 218 217 217 217 217 216 217 217 217 216 217 217 217 216 215 213 212 212 212 210 209 206 204 201 200 199 196 196 193 189 185 182 180 176 174 174 171 168 168 168 167 167 168 164 159
200 216 269 257 265 278 252 252 249 238 248 197 194 251 266 291 17 271 242 223 253 271 274 275 236 252 248 239 239 228 228 231 229 228 233 233 227 229 231 226 224 227 226 224 224 224 222 221 221 220 219 219 218 218 218 218 218 218 218 218 218 218 217 217 216 216 215 215 214 213 213 212 211 209 207 204 202 201 199 197 193 189 186 182 182 179 175 174 174 170 167 169 171 172 174 167 160
203 241 299 277 288 294 242 238 251 213 249 203 186 248 277 312 169 250 258 243 216 276 278 284 262 257 256 246 241 233 231 236 233 225 228 229 224 226 226 224 226 226 225 226 226 223 223 223 222 221 220 219 218 219 218 218 219 219 219 219 219 219 218 217 216 216 216 216 215 214 214 213 211 210 209 207 205 204 202 198 194 190 188 184 182 181 178 175 175 173 171 174 177 178 180 173 164
302 61 317 292 331 309 264 249 242 182 213 187 162 260 287 268 239 245 260 266 165 261 275 280 272 269 265 255 243 238 240 238 230 222 229 231 231 227 227 229 227 225 226 227 225 223 225 223 222 222 220 219 219 219 219 219 220 219 219 219 220 219 218 218 217 217 217 216 215 214 215 214 212 211 210 209 208 207 204 200 196 192 189 186 183 182 181 179 177 178 177 177 179 179 180 173 169
299 64 297 297 341 308 266 189 105 159 192 166 148 274 258 248 260 260 260 260 262 263 267 270 272 276 273 266 252 247 247 236 222 227 232 235 236 232 233 236 230 227 228 225 224 226 225 223 222 221 219 219 219 219 219 219 220 219 220 220 220 220 218 218 218 218 217 216 216 215 215 215 214 213 211 211 210 209 206 201 198 194 190 188 186 184 185 183 182 183 182 181 180 178 178 176 177
307 299 243 315 321 286 281 151 116 234 227 158 154 260 249 248 268 273 268 212 232 249 264 270 269 271 274 271 263 260 254 235 230 235 237 238 239 235 237 239 233 230 227 224 227 227 225 222 221 220 220 220 219 219 219 219 220 219 220 220 219 220 219 219 218 218 218 217 216 216 216 216 215 214 213 212 212 211 207 203 200 196 192 191 189 187 187 187 185 186 186 185 181 177 178 179 177
7 282 284 305 204 270 302 288 190 217 265 143 163 239 260 253 262 273 289 139 190 235 259 266 268 267 269 273 270 268 266 250 239 240 243 242 239 237 239 240 235 231 228 228 229 226 224 223 221 220 220 219 219 219 219 218 219 219 219 219 219 220 218 219 219 218 219 218 217 216 216 216 216 215 215 214 213 212 209 205 202 198 195 193 191 189 189 190 188 187 186 186 185 178 179 182 176
337 213 253 263 241 271 312 298 234 195 208 196 205 234 268 262 258 275 293 219 188 225 264 268 269 270 266 270 272 270 274 270 255 243 244 244 241 240 240 240 236 233 233 230 227 224 223 222 220 220 220 221 219 218 218 217 217 218 218 219 219 219 218 218 219 218 219 218 218 217 217 217 217 217 216 216 215 214 210 207 203 200 198 196 194 192 191 192 191 191 188 184 187 185 183 181 172
290 217 234 246 249 258 292 297 293 164 169 218 233 238 254 262 269 287 295 283 259 252 268 271 270 273 270 267 266 265 265 268 268 256 249 246 244 244 242 241 239 236 236 233 229 226 225 222 220 220 221 221 219 217 217 216 216 216 217 218 218 218 218 218 218 218 218 218 218 218 218 218 218 218 218 217 216 214 211 209 205 202 200 198 196 195 193 192 192 194 193 187 186 188 186 179 170
237 232 242 262 249 248 253 268 286 306 223 231 253 252 255 267 275 280 281 281 283 274 268 270 270 269 269 266 259 259 262 262 263 263 261 254 249 249 246 244 241 238 238 235 232 228 226 223 221 221 220 218 217 216 215 213 213 214 215 216 217 218 218 218 218 219 218 218 219 219 219 219 220 219 219 218 216 214 212 210 207 204 202 200 198 196 194 192 191 192 195 193 186 185 185 177 166
228 232 242 265 266 251 244 252 259 286 290 263 257 262 261 267 271 272 272 273 279 280 276 272 267 263 265 264 257 256 259 258 258 265 270 267 258 254 251 248 244 240 238 235 232 227 224 222 220 219 218 216 214 211 209 207 208 210 211 212 215 217 217 217 218 219 219 220 220 220 220 220 220 219 219 218 216 214 212 210 208 205 204 202 200 199 197 196 194 193 195 195 190 183 179 175 164
253 248 251 256 264 265 258 266 269 76 300 257 248 265 266 264 268 267 269 271 272 277 279 276 269 263 261 262 263 260 255 259 270 276 273 271 265 258 253 248 242 238 235 232 228 225 223 220 218 218 216 213 209 206 204 203 203 203 204 209 213 214 214 215 216 218 219 221 221 220 220 219 220 219 219 218 216 215 213 212 209 207 206 205 204 204 202 199 197 196 194 191 191 185 176 175 167
265 245 263 263 253 266 267 273 279 336 278 253 240 267 269 263 267 265 265 265 257 257 267 275 274 269 265 262 263 264 265 274 282 276 272 270 264 256 249 242 235 231 230 228 226 225 223 219 219 219 215 210 209 207 204 204 205 204 205 209 212 212 211 212 214 216 218 219 220 219 219 219 219 219 219 218 217 216 214 212 210 209 208 207 206 205 203 201 197 197 195 190 188 185 180 177 172
250 247 272 270 257 279 275 265 284 318 231 272 274 274 272 260 259 257 253 252 249 246 249 264 270 272 272 264 261 272 286 289 278 272 275 271 261 255 248 241 236 234 233 230 227 226 221 219 219 218 214 212 211 209 207 207 208 208 208 210 211 209 211 213 214 216 216 217 218 218 218 218 218 218 218 218 217 216 215 214 212 211 210 208 207 205 203 201 200 199 198 196 190 183 181 179 179
234 227 254 268 262 279 268 261 313 329 237 276 293 285 278 256 250 250 249 249 253 254 244 253 264 264 262 263 270 286 284 282 283 283 282 277 274 274 263 252 246 240 237 232 227 223 220 220 219 216 215 214 211 210 209 209 208 207 209 212 212 210 213 215 214 217 217 216 216 217 218 218 218 218 218 218 217 217 217 215 214 212 211 211 209 207 204 202 203 201 200 200 196 186 179 177 182
229 213 224 255 252 247 253 279 336 323 284 302 313 298 284 234 225 244 254 254 252 253 248 254 263 257 254 267 279 269 259 270 281 283 286 306 333 323 301 278 263 249 240 236 231 226 224 223 220 217 215 214 212 210 208 206 204 203 203 206 207 207 211 211 211 215 214 214 215 216 217 217 217 218 219 219 218 218 217 217 215 213 212 211 211 210 208 206 206 205 202 201 202 198 189 180 180
257 214 210 236 249 251 260 288 343 343 307 341 13 320 295 180 165 244 275 271 243 244 243 246 251 253 255 271 273 265 258 262 269 278 298 343 356 329 309 285 265 254 250 246 240 234 229 226 222 218 215 214 213 210 206 203 201 199 197 195 194 196 201 206 209 210 209 211 214 215 217 217 217 217 218 219 218 218 218 217 216 214 213 212 212 212 210 209 208 207 206 204 205 207 200 187 180
280 232 210 228 243 252 258 275 322 299 259 292 69 348 287 290 176 236 245 237 251 247 234 241 246 257 274 273 268 275 277 274 279 291 334 359 330 311 300 285 268 261 264 260 248 239 234 229 224 219 216 214 212 209 205 202 201 200 199 199 199 198 202 209 211 210 209 211 213 214 215 216 216 216 216 217 218 218 218 218 217 215 215 214 213 212 211 212 212 210 209 207 207 207 204 195 186
270 233 199 207 219 232 230 218 222 235 276 302 132 136 277 288 266 228 210 190 256 261 249 254 256 266 282 275 275 277 275 290 311 329 0 333 293 286 286 290 285 278 278 270 254 244 237 232 228 222 217 215 212 208 205 203 202 202 202 203 205 207 209 213 212 210 211 211 210 212 213 214 214 214 215 216 217 218 218 217 217 216 215 215 214 214 214 214 213 211 209 207 208 207 207 204 195
253 200 156 175 194 205 169 163 200 243 345 303 205 137 245 277 279 61 98 166 236 255 251 257 263 274 279 274 280 283 290 334 13 12 343 292 283 294 297 303 305 298 290 278 265 255 242 235 230 225 220 217 213 209 206 205 206 204 204 205 208 212 214 215 212 208 209 209 208 210 211 211 212 213 214 216 216 217 218 217 217 216 216 216 216 216 216 215 214 212 210 208 207 206 207 208 204
230 117 96 74 71 82 107 143 144 84 312 248 196 162 218 277 277 90 78 181 225 245 249 260 278 288 272 269 282 291 313 355 56 121 274 275 291 309 313 316 315 311 301 284 271 259 247 237 230 225 223 219 215 212 208 207 207 206 206 207 210 212 212 211 210 207 206 207 207 208 208 209 210 211 213 214 215 216 217 217 217 216 216 216 216 216 216 215 214 214 213 211 209 207 205 206 208
139 102 56 28 25 36 55 49 90 78 280 234 185 182 187 275 282 139 167 214 212 233 257 283 301 289 267 268 278 285 308 333 332 308 287 290 306 317 323 321 322 324 314 292 272 257 248 238 231 227 224 220 217 214 211 210 208 208 210 210 211 211 208 204 203 202 202 203 204 206 207 208 210 211 212 212 214 216 216 216 217 217 217 217 217 217 216 216 215 214 213 212 210 209 207 205 205
126 102 60 4 327 13 29 351 48 166 266 238 183 182 185 232 257 208 246 257 220 214 238 266 282 281 273 270 269 276 297 305 308 311 310 314 315 320 324 324 330 332 318 299 276 258 247 239 232 228 224 220 218 215 213 213 211 212 214 214 214 212 208 205 204 203 202 202 203 204 205 207 209 210 210 211 213 214 214 214 215 216 216 217 217 217 217 217 216 214 213 212 211 209 209 206 204
129 124 121 311 308 342 347 313 54 211 263 262 181 175 208 242 254 262 266 270 251 220 218 239 248 257 267 279 287 298 312 308 305 306 313 318 315 319 322 325 333 332 319 304 280 261 250 242 234 229 226 221 218 216 215 214 215 216 216 216 216 214 211 210 209 207 206 205 204 203 203 205 206 207 209 211 212 212 212 212 214 215 216 217 217 217 217 217 216 214 213 212 211 210 209 208 208
158 154 160 173 207 263 266 263 266 256 270 284 183 176 255 278 273 241 239 253 260 232 219 232 232 242 265 287 296 301 308 312 309 293 288 291 301 308 299 303 316 319 312 300 282 268 255 246 237 233 230 224 219 218 216 216 218 219 219 218 218 216 214 214 213 212 210 208 206 206 206 205 206 208 210 211 212 211 212 214 215 215 216 217 218 218 218 217 216 215 214 213 212 212 210 209 210
180 161 143 171 184 200 231 233 251 267 282 314 223 190 223 249 258 232 228 252 289 266 240 256 255 255 277 297 296 299 303 306 299 286 291 300 290 280 281 297 312 319 319 311 298 282 263 252 243 237 234 227 221 219 217 218 220 221 221 222 221 219 218 217 217 216 214 212 210 209 209 209 210 211 212 212 212 212 213 215 215 216 216 217 218 218 217 217 216 215 214 214 213 212 211 210 210
214 126 113 227 204 183 242 256 236 249 311 288 233 222 228 228 254 255 251 271 285 278 300 338 304 286 312 301 282 285 292 296 298 303 320 320 297 257 259 279 296 320 344 336 320 303 280 265 252 245 242 235 227 223 221 221 221 220 222 224 225 224 222 221 221 220 218 217 215 213 212 213 213 213 213 212 212 213 214 214 214 215 216 217 217 218 217 216 216 215 214 214 214 213 211 211 210
170 120 192 231 171 152 239 283 263 228 266 260 247 255 276 295 282 278 358 331 318 317 318 297 269 286 306 273 265 292 306 303 304 310 307 298 301 287 274 300 351 10 6 352 338 322 302 284 266 255 249 241 234 229 226 224 223 222 223 224 225 226 225 225 224 223 221 219 219 218 217 217 216 215 214 213 213 213 214 213 213 214 215 216 216 216 217 216 215 215 215 214 214 213 212 211 211
138 175 221 212 111 131 150 269 290 258 254 260 261 265 279 295 278 312 17 341 341 344 320 297 285 289 272 261 277 304 294 290 289 284 271 272 306 344 350 1 14 15 4 351 342 329 314 301 285 270 258 249 242 236 231 228 226 225 226 225 226 227 228 229 229 228 226 222 221 221 220 220 219 217 216 214 213 212 212 213 213 213 214 215 215 215 215 215 215 214 215 215 215 213 212 211 211
147 217 236 112 198 240 155 192 237 247 253 254 254 266 274 259 259 286 304 297 305 310 308 319 298 262 256 282 307 307 294 294 294 294 309 333 352 2 5 6 10 11 3 356 349 336 324 315 304 291 276 264 255 246 239 235 231 230 230 229 228 228 229 231 232 232 231 228 225 222 221 222 221 220 217 215 213 211 211 211 211 212 213 213 214 215 214 214 213 213 213 214 214 213 211 211 211
45 336 321 66 181 216 193 189 193 235 254 255 250 259 263 256 261 269 269 268 282 290 295 299 276 258 270 286 295 308 318 330 343 356 2 6 7 6 9 8 6 7 5 5 3 352 338 324 310 295 282 273 266 259 251 245 240 237 236 235 233 232 231 231 231 231 233 233 230 227 224 223 223 222 220 217 215 213 211 211 210 210 211 212 212 213 213 212 212 212 212 212 212 212 211 211 210
142 184 256 241 209 229 263 242 188 236 254 256 252 249 247 258 265 267 266 234 216 255 281 291 285 277 275 271 283 325 352 5 11 14 9 9 9 5 8 10 9 8 6 7 8 5 359 347 330 313 300 294 288 278 264 255 249 244 242 241 239 238 235 234 232 230 232 233 232 231 229 226 225 224 222 219 217 215 213 212 211 210 210 210 211 211 211 211 211 211 211 211 211 211 210 210 209
180 193 206 220 226 241 270 255 209 209 240 241 253 258 248 242 259 274 286 218 199 246 281 291 298 303 307 322 355 12 20 20 16 16 11 9 9 4 5 7 8 8 7 6 7 8 8 3 357 348 335 324 311 295 279 267 257 251 248 245 244 243 241 239 236 234 233 233 232 232 231 228 227 226 224 222 220 217 215 213 211 211 210 209 210 210 211 211 211 211 210 210 210 209 208 208 208